User: anonymous   Login
Location: Caltech
(34.1382°N, 118.1253°W)
Time: 04:09:01
(UTC-07:00)
Language:

Cosmos 1937 Rocket - Orbit

View from above orbital plane
View from above orbital plane
View from above satellite
View from above satellite

Ground track
Ground track

The orbit data is extracted from the following two-line orbital elements,

1 19039U 88029B   16126.87407098  .00000044  00000-0  23245-4 0  9996
2 19039  74.0478 329.4578 0024578 244.4125 215.9378 14.38309988472292
Epoch (UTC): 05 May 2016 20:58:39
Eccentricity: 0.0024578
inclination: 74.0478°
perigee height: 746 km
apogee height: 781 km
right ascension of ascending node: 329.4578°
argument of perigee: 244.4125°
revolutions per day: 14.38309988
mean anomaly at epoch: 215.9378°
orbit number at epoch: 47229

The dashed part of the orbit path shows where the satellite is in the earth's shadow,  

DLR